Date String (YYYY-MM-DD hh:mm:ss) UTC,Instrument flags,absolute air pressure of the measurement (hPa),sample flow rate (lpm),inlet stack bypass flow (lpm),air temperature of the measurement (°C),ambient temperature measured by the external sensor (°C),aerosol sample conditioner tube jacket temperature (°C),OPC LED temperature (°C),internal box temperature (°C),relative humidity of the measurement (%),span deviation,mass concentration of particles derived from Lorenz-Mie calculation of OPC scattering (μg/m³),mass concentration of particles derived from Lorenz-Mie calculation of OPC scattering (μg/m³),mass concentration of particles derived from Lorenz-Mie calculation of OPC scattering (μg/m³)
DateTimeUTC,F1_M11,P_M11,Q1_M11,Q2_M11,T1_M11,T2_M11,T3_M11,T4_M11,T5_M11,U1_M11,ZSPAN_M11,X0_M11,X2_M11,X1_M11
2023-07-09 06:00:00,SystemResetWarning,0834.4,5.00,000.00,030.1,028.9,000.0,038.5,031.6,34.0,-001.0,0019.39,0008.13,0006.84
2023-07-09 06:01:00,SystemResetWarning,0834.3,4.99,000.00,030.1,028.4,000.0,038.5,031.6,34.1,-001.1,0020.15,0008.10,0006.86
2023-07-09 06:02:00,SystemResetWarning,0834.3,5.00,000.00,030.1,026.4,000.0,038.4,031.3,34.1,-001.0,0019.09,0008.03,0006.86
2023-07-09 06:03:00,SystemResetWarning,0834.3,5.01,000.00,030.0,025.4,000.0,038.3,031.1,34.3,-001.3,0017.93,0007.97,0006.86
2023-07-09 06:04:00,SystemResetWarning,0834.3,5.01,000.00,029.8,025.4,000.0,038.3,030.8,34.6,-001.5,0018.77,0008.01,0006.84
2023-07-09 06:05:00,SystemResetWarning,0834.3,5.00,000.00,029.7,025.8,000.0,038.3,030.8,34.8,-001.5,0019.60,0008.07,0006.86
2023-07-09 06:06:00,SystemResetWarning,0834.4,5.00,000.00,029.7,026.2,000.0,038.3,030.9,34.9,-001.5,0019.60,0008.09,0006.87
2023-07-09 06:07:00,SystemResetWarning,0834.4,4.99,000.00,029.6,026.6,000.0,038.3,030.9,35.0,-001.8,0019.09,0008.13,0006.89
2023-07-09 06:08:00,SystemResetWarning,0834.3,5.01,000.00,029.7,027.0,000.0,038.3,031.0,35.0,-002.4,0018.68,0008.21,0006.96
2023-07-09 06:09:00,SystemResetWarning,0834.4,4.99,000.00,029.8,027.3,000.0,038.3,031.1,34.6,-002.8,0017.65,0008.28,0007.04
2023-07-09 06:10:00,SystemResetWarning,0834.4,5.01,000.00,029.9,027.5,000.0,038.3,031.2,34.4,-003.0,0017.53,0008.34,0007.14
2023-07-09 06:11:00,SystemResetWarning,0834.3,5.00,000.00,030.0,027.7,000.0,038.3,031.2,34.2,-003.2,0017.62,0008.53,0007.29
2023-07-09 06:12:00,SystemResetWarning,0834.4,4.99,000.00,030.1,027.9,000.0,038.3,031.2,34.2,-002.9,0017.09,0008.67,0007.40
2023-07-09 06:13:00,SystemResetWarning,0834.3,4.99,000.00,030.1,028.0,000.0,038.4,031.3,34.0,-002.9,0018.08,0008.84,0007.52
2023-07-09 06:14:00,SystemResetWarning,0834.4,5.00,000.00,030.1,028.2,000.0,038.4,031.3,34.0,-003.0,0018.59,0009.00,0007.64
2023-07-09 06:15:00,SystemResetWarning,0834.6,4.99,000.00,030.2,028.3,000.0,038.4,031.3,34.0,-002.8,0018.37,0009.06,0007.73
2023-07-09 06:16:00,SystemResetWarning,0834.5,5.00,000.00,030.2,028.3,000.0,038.5,031.4,33.9,-002.7,0017.72,0009.13,0007.82
2023-07-09 06:17:00,SystemResetWarning,0834.5,5.01,000.00,030.2,028.4,000.0,038.5,031.4,33.9,-002.7,0018.36,0009.24,0007.90
2023-07-09 06:18:00,SystemResetWarning,0834.3,5.01,000.00,030.2,028.5,000.0,038.5,031.4,34.0,-002.8,0018.99,0009.26,0007.96
2023-07-09 06:19:00,SystemResetWarning,0834.3,4.98,000.00,030.2,028.5,000.0,038.6,031.4,33.8,-002.5,0019.39,0009.23,0007.99
2023-07-09 06:20:00,SystemResetWarning,0834.4,5.01,000.00,030.3,028.6,000.0,038.6,031.5,33.7,-002.0,0020.08,0009.21,0008.02
2023-07-09 06:21:00,SystemResetWarning,0834.4,5.01,000.00,030.3,028.6,000.0,038.6,031.5,33.7,-002.1,0020.32,0009.23,0008.03
2023-07-09 06:22:00,SystemResetWarning,0834.4,4.99,000.00,030.3,028.7,000.0,038.6,031.5,33.6,-002.1,0019.75,0009.20,0007.99
2023-07-09 06:23:00,SystemResetWarning,0834.4,4.99,000.00,030.3,028.7,000.0,038.6,031.5,33.5,-002.2,0020.09,0009.11,0007.95
2023-07-09 06:24:00,SystemResetWarning,0834.4,5.01,000.00,030.3,028.7,000.0,038.7,031.6,33.5,-001.9,0019.14,0009.02,0007.89
2023-07-09 06:25:00,SystemResetWarning,0834.4,5.00,000.00,030.3,028.8,000.0,038.7,031.6,33.5,-001.8,0019.04,0008.91,0007.79
2023-07-09 06:26:00,SystemResetWarning,0834.4,5.01,000.00,030.3,028.8,000.0,038.7,031.6,33.4,-002.1,0019.12,0008.82,0007.68
2023-07-09 06:27:00,SystemResetWarning,0834.3,5.00,000.00,030.4,028.8,000.0,038.7,031.6,33.4,-002.2,0019.08,0008.69,0007.55
2023-07-09 06:28:00,SystemResetWarning,0834.4,4.99,000.00,030.4,028.8,000.0,038.7,031.7,33.4,-002.0,0019.45,0008.52,0007.42
2023-07-09 06:29:00,SystemResetWarning,0834.4,5.00,000.00,030.4,028.9,000.0,038.8,031.7,33.4,-001.7,0020.46,0008.41,0007.30
2023-07-09 06:30:00,SystemResetWarning,0834.4,5.01,000.00,030.4,028.9,000.0,038.8,031.7,33.3,-001.8,0021.03,0008.36,0007.19
2023-07-09 06:31:00,SystemResetWarning,0834.4,5.00,000.00,030.4,028.9,000.0,038.8,031.7,33.3,-002.1,0021.58,0008.28,0007.06
2023-07-09 06:32:00,SystemResetWarning,0834.4,5.00,000.00,030.4,028.9,000.0,038.8,031.7,33.2,-002.2,0021.82,0008.14,0006.91
2023-07-09 06:33:00,SystemResetWarning,0834.3,5.00,000.00,030.4,029.0,000.0,038.8,031.7,33.2,-001.9,0021.87,0007.96,0006.77
2023-07-09 06:34:00,SystemResetWarning,0834.3,5.00,000.00,030.4,029.0,000.0,038.8,031.7,33.2,-001.8,0021.74,0007.89,0006.65
2023-07-09 06:35:00,SystemResetWarning,0834.3,4.99,000.00,030.4,028.6,000.0,038.8,031.7,33.2,-001.8,0022.02,0007.80,0006.54
2023-07-09 06:36:00,SystemResetWarning,0834.4,5.00,000.00,030.4,026.7,000.0,038.7,031.6,33.3,-002.1,0021.93,0007.74,0006.49
2023-07-09 06:37:00,SystemResetWarning,0834.4,5.00,000.00,030.3,025.6,000.0,038.6,031.3,33.4,-001.6,0021.70,0007.73,0006.49
2023-07-09 06:38:00,SystemResetWarning,0834.3,5.01,000.00,030.1,025.5,000.0,038.6,031.0,33.8,-001.4,0021.11,0007.72,0006.50
2023-07-09 06:39:00,SystemResetWarning,0834.6,5.01,000.00,030.0,025.8,000.0,038.6,030.9,34.1,-001.5,0020.63,0007.76,0006.53
2023-07-09 06:40:00,SystemResetWarning,0834.6,4.99,000.00,029.9,026.2,000.0,038.6,031.0,34.2,-001.5,0019.15,0007.78,0006.54
2023-07-09 06:41:00,SystemResetWarning,0834.3,4.99,000.00,029.9,026.6,000.0,038.6,031.0,34.2,-001.5,0018.07,0007.74,0006.54
2023-07-09 06:42:00,SystemResetWarning,0834.3,5.00,000.00,029.9,027.0,000.0,038.5,031.1,34.2,-001.5,0016.55,0007.68,0006.53
2023-07-09 06:43:00,SystemResetWarning,0834.4,5.00,000.00,029.9,027.3,000.0,038.5,031.1,34.3,-001.3,0016.10,0007.74,0006.54
2023-07-09 06:44:00,SystemResetWarning,0834.5,5.01,000.00,029.9,027.5,000.0,038.5,031.2,34.3,-001.3,0015.88,0007.77,0006.56
2023-07-09 06:45:00,SystemResetWarning,0834.4,4.99,000.00,029.9,027.7,000.0,038.5,031.2,34.3,-001.5,0015.96,0007.77,0006.58
2023-07-09 06:46:00,SystemResetWarning,0834.3,4.99,000.00,029.9,027.9,000.0,038.5,031.2,34.3,-001.7,0016.25,0007.84,0006.64
2023-07-09 06:47:00,SystemResetWarning,0834.4,5.00,000.00,029.9,028.0,000.0,038.5,031.3,34.3,-001.7,0016.81,0008.00,0006.73
2023-07-09 06:48:00,SystemResetWarning,0834.4,5.01,000.00,029.9,028.2,000.0,038.5,031.3,34.3,-001.7,0017.19,0008.12,0006.79
2023-07-09 06:49:00,SystemResetWarning,0834.4,5.00,000.00,029.9,028.3,000.0,038.5,031.3,34.2,-001.6,0017.67,0008.15,0006.82
2023-07-09 06:50:00,SystemResetWarning,0834.4,5.00,000.00,029.9,028.3,000.0,038.5,031.4,34.2,-001.5,0017.95,0008.21,0006.86
2023-07-09 06:51:00,SystemResetWarning,0834.4,5.00,000.00,029.9,028.4,000.0,038.5,031.4,34.2,-001.2,0017.81,0008.33,0006.93
2023-07-09 06:52:00,SystemResetWarning,0834.4,5.00,000.00,030.0,028.5,000.0,038.5,031.4,34.2,-001.2,0017.70,0008.42,0007.02
2023-07-09 06:53:00,SystemResetWarning,0834.5,4.99,000.00,030.0,028.5,000.0,038.5,031.4,34.2,-001.0,0017.96,0008.59,0007.12
2023-07-09 06:54:00,SystemResetWarning,0834.4,5.00,000.00,030.0,028.6,000.0,038.5,031.4,34.1,-001.0,0018.11,0008.71,0007.24
2023-07-09 06:55:00,SystemResetWarning,0834.3,5.00,000.00,030.0,028.6,000.0,038.5,031.5,34.0,-001.2,0018.63,0008.87,0007.36
2023-07-09 06:56:00,SystemResetWarning,0834.4,5.01,000.00,030.0,028.7,000.0,038.5,031.5,34.0,-001.1,0018.89,0009.03,0007.47
2023-07-09 06:57:00,SystemResetWarning,0834.4,5.01,000.00,030.1,028.7,000.0,038.5,031.5,34.0,-001.4,0018.49,0009.18,0007.59
2023-07-09 06:58:00,SystemResetWarning,0834.4,5.00,000.00,030.1,028.7,000.0,038.5,031.5,34.0,-001.5,0018.10,0009.31,0007.75
2023-07-09 06:59:00,SystemResetWarning,0834.3,5.01,000.00,030.1,028.7,000.0,038.5,031.6,34.0,-001.7,0019.11,0009.46,0007.89
